Location: Home
(42.5358°N, 72.7383°W)
Time: 13:17:52
(UTC-05:00)

A-11 Canister half - Pass Details

Date: 02 December 2021
Orbit: 1516 x 1684 km, 47.2° (Epoch: 26 January)

Event Time Altitude Azimuth Distance (km) Brightness Sun altitude
Rises 13:06:02 0° 296° (WNW) 4,901 11.6 22.5°
Reaches altitude 10° 13:09:12 10° 294° (WNW) 3,926 11.2 22.2°
Maximum altitude 13:19:11 68° 214° (SW) 1,791 10.2 21.5°
Drops below altitude 10° 13:29:12 10° 134° (SE) 3,928 11.4 20.7°
Sets 13:32:22 0° 132° (SE) 4,904 11.8 20.4°
